Home > Weather > Fukuoka > Past weeks

Flag for Japan Past Weather in Fukuoka, Japan — Yesterday and Last 2 Weeks

Now
68 °F

Sprinkles. Broken clouds.


Feels Like: 68 °F
Forecast: 64 / 79 °F
Wind: 3 mph from Northwest

Location: Fukuoka Airport

Current Time: May 29, 2016 at 4:58:41 PM

Latest Report: May 29, 2016 at 4:30 PM


Visibility: 5 mi

Pressure: 29.59 "Hg

Humidity: 88%

Dew Point: 64 °F

Location of FukuokaLocation

Past Weather in Fukuoka — Graph

°F

Fukuoka Temperature Yesterday

Maximum temperature yesterday: 73 °F (at 5:30 PM)
Minimum temperature yesterday: 61 °F (at 7:30 AM)
Average temperature yesterday: 68 °F

High & Low Weather Summary for the Past Weeks

 TemperatureHumidityPressure
High86 °F (May 15, 2:30 PM)94% (May 16, 8:00 AM)30.12 "Hg (May 16, 8:00 AM)
Low50 °F (May 17, 3:00 AM)19% (May 17, 2:00 PM)29.59 "Hg (May 29, 2:00 PM)
Average71 °F63%29.89 "Hg
* Reported May 14 3:00 PM — May 29 3:30 PM, Fukuoka, Weather by CustomWeather, © 2016

Note: Actual official high and low records may vary slightly from our data, if they occured in-between our weather recording intervals... More about our weather records

Advertising

Fukuoka Weather History for the Previous 24 Hours

Scroll right to see more
 ConditionsComfort  
Time TempWeatherWind HumidityBarometerVisibility
3:30 PM
Sun, May 29
68 °FSprinkles. Broken clouds.5 mph88%29.59 "Hg5 mi
3:00 PM68 °FSprinkles. Broken clouds.5 mph88%29.59 "Hg5 mi
2:30 PM68 °FRain showers. Fog.6 mph94%29.59 "Hg2 mi
2:04 PM68 °FSprinkles. Fog.5 mph94%29.62 "Hg1 mi
2:00 PM68 °FSprinkles. Fog.5 mph94%29.59 "Hg2 mi
1:30 PM68 °FSprinkles. Fog.3 mph94%29.62 "Hg2 mi
1:00 PM68 °FSprinkles. Fog.5 mph94%29.62 "Hg1 mi
12:30 PM70 °FSprinkles. Fog.6 mph88%29.62 "Hg1 mi
12:00 PM70 °FSprinkles. Fog.6 mph88%29.62 "Hg3 mi
11:30 AM70 °FSprinkles. Fog.5 mph88%29.65 "Hg2 mi
11:00 AM68 °FSprinkles. Fog.5 mph94%29.65 "Hg2 mi
10:30 AM70 °FLots of rain. Fog.2 mph88%29.65 "Hg1 mi
10:00 AM68 °FRain showers. Fog.1 mph94%29.65 "Hg2 mi
9:47 AM70 °FLots of rain. Fog.1 mph88%29.65 "Hg1 mi
9:30 AM70 °FSprinkles. Broken clouds.3 mph88%29.65 "Hg4 mi
9:00 AM70 °FSprinkles. Broken clouds.6 mph83%29.65 "Hg4 mi
8:30 AM70 °FSprinkles. Broken clouds.3 mph88%29.65 "Hg4 mi
8:00 AM68 °FSprinkles. Fog.3 mph88%29.68 "Hg3 mi
7:30 AM68 °FSprinkles. Fog.5 mph88%29.68 "Hg2 mi
7:00 AM68 °FLight rain. Fog.7 mph88%29.65 "Hg2 mi
6:30 AM68 °FLight rain. Fog.6 mph88%29.65 "Hg3 mi
6:00 AM70 °FSprinkles. Partly sunny.2 mph78%29.68 "HgN/A
5:30 AM68 °FPartly sunny.7 mph88%29.68 "HgN/A
5:00 AM68 °FPassing clouds.2 mph83%29.65 "HgN/A
4:30 AM68 °FPassing clouds.1 mph83%29.65 "HgN/A
4:00 AM68 °FPassing clouds.5 mph83%29.65 "HgN/A
3:30 AM68 °FPassing clouds.7 mph83%29.68 "HgN/A
3:00 AM68 °FPassing clouds.5 mph83%29.68 "HgN/A
2:30 AM68 °FPartly cloudy.5 mph83%29.68 "Hg6 mi
2:00 AM68 °FPartly cloudy.6 mph83%29.68 "Hg5 mi
1:30 AM68 °FPartly cloudy.7 mph83%29.68 "Hg6 mi
1:00 AM68 °FPartly cloudy.5 mph83%29.68 "Hg5 mi
12:30 AM68 °FPartly cloudy.5 mph83%29.68 "Hg4 mi
12:00 AM68 °FPartly cloudy.5 mph83%29.71 "Hg4 mi
11:30 PM
Sat, May 28
68 °FPartly cloudy.6 mph83%29.71 "Hg4 mi
11:00 PM70 °FPartly cloudy.7 mph78%29.71 "Hg5 mi
10:30 PM70 °FPartly cloudy.9 mph78%29.71 "Hg4 mi
10:00 PM70 °FPassing clouds.6 mph78%29.71 "HgN/A
9:30 PM70 °FPartly cloudy.5 mph78%29.71 "HgN/A
9:00 PM72 °FPartly cloudy.5 mph69%29.71 "HgN/A
8:30 PM72 °FPartly cloudy.7 mph69%29.71 "HgN/A
8:00 PM72 °FPartly cloudy.7 mph69%29.71 "HgN/A
7:30 PM72 °FPartly cloudy.9 mph78%29.68 "HgN/A
7:00 PM72 °FBroken clouds.3 mph69%29.68 "HgN/A
6:30 PM73 °FBroken clouds.2 mph69%29.68 "HgN/A
6:00 PM73 °FPartly sunny.3 mph69%29.68 "HgN/A
5:30 PM73 °FPartly sunny.5 mph69%29.68 "HgN/A
5:00 PM72 °FPartly sunny.5 mph73%29.65 "HgN/A
4:30 PM72 °FBroken clouds.2 mph73%29.68 "HgN/A
4:00 PM72 °FBroken clouds.3 mph69%29.68 "HgN/A
Weather by CustomWeather, © 2016

See weather overviewHow to use our weather pages